TURKSAT 6A

Last updated on Sat Feb 08 2025 00:02:45 GMT+0000 (Coordinated Universal Time)

1 60233U 24127A 25037.82891895 .00000144 00000+0 00000+0 0 9994 2 60233 0.0730 249.5831 0003152 26.4356 201.5607 1.00273063 2055
UTC large
Height (km)
Speed (km/s)
/
Latitude / Longitude
Inclination (degrees)
Orbital Period (minutes)
Azimuth
Elevation
Range (km)
Doppler Factor

Next 0 passes for location: London (51.5072 / 0.1276)

Sorry there are no passes over London.